Weather History for Watonga, OK

Change the Weather History Date:

Sunday, December 30, 2012

  Actual Average Record
Temperature  
Mean Temperature 36 °F -  
Max Temperature 43 °F 44 °F 69 °F (1965)
Min Temperature 28 °F 24 °F -4 °F (1983)
Degree Days  
Heating Degree Days 30    
Moisture  
Dew Point 27 °F    
Average Humidity 70    
Maximum Humidity 86    
Minimum Humidity 55    
Precipitation  
Precipitation 0.00 in - - ()
Sea Level Pressure  
Sea Level Pressure 30.23 in    
Wind  
Wind Speed 9 mph (South)    
Max Wind Speed 22 mph    
Max Gust Speed 32 mph    
Visibility 10 miles    
Events      
Averages and records for this station are not official NWS values.
T = Trace of Precipitation, MM = Missing Value Source: NWS Daily Summary

Daily Weather History Graph

Daily Weather History Graph

Search for Another Location

Airport:

Trip Planner

Search our weather history database for the weather conditions in past years. The results will help you decide how hot, cold, wet, or windy it might be!

Date:

Astronomy

Dec. 30, 2012 Rise Set
Actual Time 7:43 AM CST 5:29 PM CST
Civil Twilight 7:15 AM CST 5:57 PM CST
Nautical Twilight 6:43 AM CST 6:29 PM CST
Astronomical Twilight 6:12 AM CST 7:01 PM CST
Moon 7:56 PM CST (12/30) 8:57 AM CST (12/30)
Length of Visible Light 10h 42m
Length of Day
9h 45m
Waning Gibbous, 95% of the Moon is Illuminated
Dec 30
Waning Gibbous
Jan 4
Last Quarter
Jan 11
New
Jan 18
First Quarter
Jan 26
Full

Hourly Weather History & Observations

Time (CST) Temp. Windchill Dew Point Humidity Pressure Visibility Wind Dir Wind Speed Gust Speed Precip Events Conditions
12:15 AM 29.1 °F 25.4 °F 23.5 °F 80% 30.32 in 10.0 mi SSE 3.5 mph - N/A   Clear
12:35 AM 28.0 °F 24.2 °F 23.2 °F 82% 30.33 in 10.0 mi South 3.5 mph - N/A   Clear
12:55 AM 29.7 °F 24.7 °F 25.3 °F 84% 30.33 in 10.0 mi South 4.6 mph - N/A   Clear
1:15 AM 29.3 °F 24.3 °F 25.2 °F 85% 30.33 in 10.0 mi South 4.6 mph - N/A   Clear
1:35 AM 30.7 °F 24.9 °F 25.7 °F 82% 30.32 in 10.0 mi South 5.8 mph - N/A   Clear
1:55 AM 29.8 °F 23.9 °F 25.3 °F 83% 30.31 in 10.0 mi SSE 5.8 mph - N/A   Clear
2:15 AM 30.2 °F 25.4 °F 25.3 °F 82% 30.31 in 10.0 mi South 4.6 mph - N/A   Clear
2:35 AM 30.6 °F 23.8 °F 25.7 °F 82% 30.32 in 10.0 mi South 6.9 mph - N/A   Clear
2:55 AM 29.7 °F 26.1 °F 25.0 °F 83% 30.33 in 10.0 mi SSW 3.5 mph - N/A   Clear
3:15 AM 29.1 °F 24.1 °F 25.2 °F 85% 30.32 in 10.0 mi South 4.6 mph - N/A   Clear
3:35 AM 28.4 °F 21.2 °F 24.8 °F 86% 30.31 in 10.0 mi SSE 6.9 mph - N/A   Clear
3:55 AM 28.6 °F 22.4 °F 25.0 °F 86% 30.31 in 10.0 mi SSE 5.8 mph - N/A   Clear
4:15 AM 28.9 °F 23.9 °F 24.8 °F 84% 30.31 in 10.0 mi SSE 4.6 mph - N/A   Clear
4:35 AM 29.5 °F 24.5 °F 24.8 °F 83% 30.30 in 10.0 mi SSE 4.6 mph - N/A   Clear
4:55 AM 30.0 °F 22.4 °F 25.3 °F 83% 30.29 in 10.0 mi SSE 8.1 mph - N/A   Clear
5:15 AM 30.0 °F 23.2 °F 25.2 °F 82% 30.28 in 10.0 mi SSE 6.9 mph - N/A   Clear
5:35 AM 30.7 °F 23.3 °F 25.3 °F 80% 30.28 in 10.0 mi SSE 8.1 mph - N/A   Clear
5:55 AM 30.4 °F 21.5 °F 25.3 °F 82% 30.28 in 10.0 mi SSE 10.4 mph - N/A   Clear
6:15 AM 31.1 °F 23.7 °F 25.2 °F 79% 30.28 in 10.0 mi SSE 8.1 mph - N/A   Clear
6:35 AM 31.1 °F 24.5 °F 25.2 °F 79% 30.29 in 10.0 mi South 6.9 mph - N/A   Clear
6:55 AM 30.9 °F 25.2 °F 24.8 °F 78% 30.29 in 10.0 mi SSE 5.8 mph - N/A   Clear
7:15 AM 30.7 °F 24.9 °F 24.6 °F 78% 30.29 in 10.0 mi SSE 5.8 mph - N/A   Clear
7:55 AM 32.0 °F 26.4 °F 24.6 °F 74% 30.29 in 10.0 mi SSE 5.8 mph - N/A   Clear
8:15 AM 32.0 °F 24.8 °F 24.8 °F 75% 30.28 in 10.0 mi South 8.1 mph - N/A   Clear
8:35 AM 32.5 °F 24.8 °F 25.5 °F 75% 30.28 in 10.0 mi South 9.2 mph - N/A   Clear
8:55 AM 33.6 °F 24.6 °F 26.2 °F 74% 30.28 in 10.0 mi South 12.7 mph - N/A   Clear
9:15 AM 34.3 °F 25.0 °F 26.6 °F 73% 30.28 in 10.0 mi South 13.8 mph 19.6 mph N/A   Clear
9:35 AM 35.6 °F 26.6 °F 26.8 °F 70% 30.28 in 10.0 mi South 13.8 mph - N/A   Clear
9:55 AM 37.0 °F 28.9 °F 26.6 °F 66% 30.28 in 10.0 mi South 12.7 mph 21.9 mph N/A   Clear
10:15 AM 37.9 °F 27.9 °F 26.6 °F 64% 30.29 in 10.0 mi SSW 19.6 mph 25.3 mph N/A   Clear
10:35 AM 38.3 °F 28.4 °F 26.8 °F 63% 30.28 in 10.0 mi South 19.6 mph 26.5 mph N/A   Clear
11:15 AM 40.1 °F 30.5 °F 27.1 °F 60% 30.28 in 10.0 mi SSW 20.7 mph 29.9 mph N/A   Clear
11:35 AM 40.5 °F 30.9 °F 27.3 °F 59% 30.28 in 10.0 mi SSW 20.7 mph 29.9 mph N/A   Clear
11:55 AM 41.4 °F 32.1 °F 27.3 °F 57% 30.26 in 10.0 mi South 20.7 mph 32.2 mph N/A   Clear
12:15 PM 42.1 °F 33.1 °F 27.7 °F 57% 30.24 in 10.0 mi South 20.7 mph 28.8 mph N/A   Clear
12:35 PM 42.8 °F 34.3 °F 27.5 °F 55% 30.23 in 10.0 mi SSW 19.6 mph 26.5 mph N/A   Clear
12:55 PM 43.2 °F 35.0 °F 27.9 °F 55% 30.22 in 10.0 mi SSW 18.4 mph 26.5 mph N/A   Clear
1:15 PM 42.4 °F 33.3 °F 27.3 °F 55% 30.20 in 10.0 mi South 21.9 mph 27.6 mph N/A   Clear
1:35 PM 42.1 °F 33.6 °F 27.7 °F 57% 30.19 in 10.0 mi South 18.4 mph 25.3 mph N/A   Clear
1:55 PM 41.0 °F 31.6 °F 27.5 °F 59% 30.18 in 10.0 mi South 20.7 mph 27.6 mph N/A   Clear
2:15 PM 41.0 °F 32.8 °F 28.2 °F 60% 30.18 in 10.0 mi South 16.1 mph 21.9 mph N/A   Clear
2:35 PM 40.5 °F 32.8 °F 28.4 °F 62% 30.17 in 10.0 mi South 13.8 mph 21.9 mph N/A   Clear
2:55 PM 40.3 °F 33.0 °F 28.4 °F 63% 30.17 in 10.0 mi South 12.7 mph - N/A   Clear
3:15 PM 40.3 °F 31.9 °F 28.0 °F 62% 30.17 in 10.0 mi South 16.1 mph 20.7 mph N/A   Clear
3:35 PM 40.1 °F 32.4 °F 28.0 °F 62% 30.17 in 10.0 mi South 13.8 mph 23.0 mph N/A   Clear
3:55 PM 39.4 °F 31.1 °F 27.5 °F 62% 30.16 in 10.0 mi South 15.0 mph 23.0 mph N/A   Clear
4:15 PM 39.2 °F 31.2 °F 27.3 °F 62% 30.16 in 10.0 mi South 13.8 mph - N/A   Clear
4:35 PM 39.0 °F 30.3 °F 27.1 °F 62% 30.15 in 10.0 mi South 16.1 mph 20.7 mph N/A   Clear
4:55 PM 38.8 °F 31.6 °F 27.3 °F 63% 30.16 in 10.0 mi South 11.5 mph 16.1 mph N/A   Clear
5:15 PM 38.5 °F 30.7 °F 27.5 °F 65% 30.16 in 10.0 mi South 12.7 mph - N/A   Clear
5:35 PM 38.3 °F 30.9 °F 27.7 °F 66% 30.16 in 10.0 mi South 11.5 mph - N/A   Clear
5:55 PM 38.3 °F 30.9 °F 27.5 °F 65% 30.16 in 10.0 mi South 11.5 mph - N/A   Clear
6:15 PM 38.3 °F 31.9 °F 27.5 °F 65% 30.15 in 10.0 mi South 9.2 mph - N/A   Clear
6:35 PM 37.9 °F 32.1 °F 27.5 °F 66% 30.16 in 10.0 mi South 8.1 mph - N/A   Clear
6:55 PM 37.9 °F 32.1 °F 27.5 °F 66% 30.16 in 10.0 mi South 8.1 mph - N/A   Clear
7:15 PM 37.4 °F 31.4 °F 28.0 °F 69% 30.16 in 10.0 mi SSE 8.1 mph - N/A   Clear
7:35 PM 37.2 °F 31.2 °F 28.0 °F 69% 30.15 in 10.0 mi SSE 8.1 mph - N/A   Clear
7:55 PM 37.2 °F 30.0 °F 27.5 °F 68% 30.14 in 10.0 mi SSE 10.4 mph - N/A   Clear
8:35 PM 37.0 °F 29.8 °F 27.5 °F 68% 30.14 in 10.0 mi SSE 10.4 mph - N/A   Clear
8:55 PM 37.2 °F 31.2 °F 27.3 °F 67% 30.14 in 10.0 mi South 8.1 mph - N/A   Clear
9:15 PM 37.4 °F 30.8 °F 27.5 °F 67% 30.13 in 10.0 mi SSE 9.2 mph - N/A   Clear
9:55 PM 37.4 °F 31.4 °F 27.1 °F 66% 30.12 in 10.0 mi South 8.1 mph - N/A   Clear
10:15 PM 37.6 °F 29.6 °F 26.8 °F 65% 30.12 in 10.0 mi South 12.7 mph - N/A   Clear
10:35 PM 37.9 °F 29.6 °F 26.8 °F 64% 30.11 in 10.0 mi South 13.8 mph - N/A   Clear
10:55 PM 37.9 °F 30.0 °F 27.3 °F 66% 30.11 in 10.0 mi South 12.7 mph 20.7 mph N/A   Clear
11:15 PM 37.8 °F 29.4 °F 27.5 °F 67% 30.11 in 10.0 mi South 13.8 mph 19.6 mph N/A   Clear
11:35 PM 37.8 °F 29.8 °F 27.9 °F 67% 30.11 in 10.0 mi South 12.7 mph - N/A   Clear
11:55 PM 37.9 °F 29.2 °F 28.4 °F 69% 30.11 in 10.0 mi South 15.0 mph 19.6 mph N/A   Clear